Regional Weather Roundup
Issued by NWS

Home | Current Version | Previous Version | Graphics & Text | Print | Product List | Glossary On
Versions: 1 2 3 4 5 6 7 8 9 10 11 12 13 14 15 16 17 18 19 20 21 22 23 24 25 26 27 28 29 30 31 32 33 34 35 36 37 38 39 40 41 42 43 44 45 46 47 48 49 50
000
ASUS43 KTOP 281059
RWRKS

WEATHER ROUNDUP FOR KANSAS
NATIONAL WEATHER SERVICE GOODLAND KS
600 AM CDT TUE APR 28 2015

NOTE:  "FAIR" INDICATES FEW OR NO CLOUDS BELOW 12,000 FEET WITH NO
SIGNIFICANT WEATHER AND/OR OBSTRUCTIONS TO VISIBILITY.

KSZ001>006-013>018-027>032-041>047-281200-
NORTHWEST KANSAS

CITY           SKY/WX    TMP DP  RH WIND       PRES   REMARKS
GOODLAND       CLEAR     39  37  92 NE10      30.29R WCI  32
HAYS           PTCLDY    39  28  65 NW9       30.21R
HILL CITY      MOCLDY    42  35  76 N15       30.24S
RUSSELL        PTCLDY    39  34  82 NW8       30.19S
$$

KSZ061>065-074>080-084>089-281200-
SOUTHWEST KANSAS

CITY           SKY/WX    TMP DP  RH WIND       PRES   REMARKS
DODGE CITY     MOCLDY    36  31  82 NW10      30.21R WCI  28
ELKHART          N/A     36  29  76 NW6         N/A
GARDEN CITY    PTCLDY    34  31  88 N10       30.22S WCI  26
GREAT BEND     MOCLDY    41  32  70 NW7       30.20R
LIBERAL        PTCLDY    37  32  81 NW10      30.23R WCI  30
$$

KSZ066>073-081>083-090>101-281200-
SOUTHEAST KANSAS

CITY           SKY/WX    TMP DP  RH WIND       PRES   REMARKS
CHANUTE        MOCLDY    49  39  68 NE8       30.13R
COFFEYVILLE    CLOUDY    50  40  68 NE8       30.10R
HUTCHINSON     MOCLDY    48  35  60 N9        30.17R
NEWTON         MOCLDY    43  34  70 N7        30.17R
PARSONS        CLOUDY    49  40  71 NE3       30.12R
WICHITA INTL   MOCLDY    48  38  68 N8        30.14R
WICHITA JABRA  MOCLDY    47  38  71 N10       30.14R
WINFIELD       CLOUDY    47  41  80 NW6       30.13S
$$

KSZ007>012-019>026-033>040-048>060-102>105-281200-
NORTHEAST KANSAS

CITY           SKY/WX    TMP DP  RH WIND       PRES   REMARKS
CONCORDIA      PTCLDY    40  34  79 W6        30.19S
EMPORIA        MOCLDY    46  38  73 N3        30.15R
LAWRENCE       PTCLDY    44  36  73 NW5       30.15S
MANHATTAN      MOCLDY    39  38  96 CALM      30.17R
OLATHE IND     PTCLDY    44  37  76 N3        30.15R
OLATHE EXE     PTCLDY    48  36  63 NE3       30.14R
SALINA         CLOUDY    43  37  79 NW8       30.18R
TOPEKA BILLARD MOCLDY    42  38  85 CALM      30.16S
TOPEKA FORBES  MOCLDY    42  37  82 CALM      30.15S
$$


USA.gov is the U.S. government's official web portal to all federal, state and local government web resources and services.